Regional Weather Roundup
Issued by NWS

Home | Current Version | Previous Version | Text Only | Print | Product List | Glossary On
Versions: 1 2 3 4 5 6 7 8 9 10 11 12 13 14 15 16 17 18 19 20 21 22 23 24 25 26 27 28 29 30 31 32 33 34 35 36 37 38 39 40 41 42 43 44 45 46 47 48
000
ASUS42 KFFC 281903
RWRGA
WEATHER ROUNDUP FOR GEORGIA
NATIONAL WEATHER SERVICE PEACHTREE CITY GA
200 PM EST FRI NOV 28 2014

NOTE: "FAIR" INDICATES FEW OR NO CLOUDS BELOW 12,000 FEET WITH NO
SIGNIFICANT WEATHER AND/OR OBSTRUCTIONS TO VISIBILITY.

* = USE WITH CAUTION. THE STATIONS MARKED WITH AN ASTERISK MAY NOT
REPORT WEATHER SUCH AS PRECIPITATION, FOG, OR THUNDER AND ARE NOT
QUALITY CONTROLLED BY NWS.

THE REMARK "TC" DENOTES TEMPERATURE READING IN DEGREES CELSIUS.

GAZ001>058-282000-
NORTH GEORGIA

CITY           SKY/WX    TMP DP  RH WIND       PRES   REMARKS
ATLANTA        SUNNY     48  16  27 N7        30.31F
ATHENS         SUNNY     47  20  34 MISG      30.32F
CHAMBLEE       SUNNY     45  17  32 W6        30.31F
PEACHTREE CITY SUNNY     48  17  29 W6        30.33F
ROME           SUNNY     45  17  32 CALM      30.34F
WEST ATLANTA   SUNNY     46  17  31 SW3       30.32F
GAINESVILLE    SUNNY     44  14  29 W7        30.31F
CARTERSVILLE   SUNNY     44  19  36 CALM      30.35F


CITY           SKY/WX    TMP DP  RH WIND       PRES   REMARKS
DALTON*        SUNNY     43  23  45 NW8       30.35F
LAWRENCEVILLE* SUNNY     45  18  33 SW6       30.30F
MARIETTA       SUNNY     46  16  30 SW3       30.31F
KENNESAW*      SUNNY     43  18  36 W6        30.34F
$$

GAZ059>098-102>109-282000-
CENTRAL GEORGIA

CITY           SKY/WX    TMP DP  RH WIND       PRES   REMARKS
AUGUSTA-BUSH   SUNNY     49  20  31 NE3       30.33F
AUGUSTA-DANIEL SUNNY     48  22  35 VRB5      30.32F
COLUMBUS       SUNNY     49  19  30 CALM      30.34F
MACON          SUNNY     50  22  33 N5        30.33F
ROBINS AFB     SUNNY     49  23  35 VRB3      30.33F


CITY           SKY/WX    TMP DP  RH WIND       PRES   REMARKS
LAGRANGE*      SUNNY     52  21  30 CALM      30.33F
SYLVANIA*      SUNNY     50  28  42 NW6       30.33F
MILLEDGEVILLE* SUNNY     48  32  53 NE6       30.33F
$$

GAZ099>101-110>166-282000-
SOUTH GEORGIA

CITY           SKY/WX    TMP DP  RH WIND       PRES   REMARKS
SAVANNAH       SUNNY     52  25  35 N5        30.33F
VALDOSTA       SUNNY     52  28  39 VRB3      30.32F
ALMA           SUNNY     51  27  39 CALM      30.32F
ST SIMONS      SUNNY     50  31  48 E8        30.33F
FT STEWART     SUNNY     50  26  38 NE5       30.31F
ALBANY         SUNNY     51  23  33 VRB3      30.35F
HUNTER AFB     SUNNY     50  27  40 VRB1      30.31F
MOODY AFB      SUNNY     51  27  38 VRB1      30.32F
BRUNSWICK      SUNNY     52  30  43 NE3       30.34F


CITY           SKY/WX    TMP DP  RH WIND       PRES   REMARKS
BAINBRIDGE*    SUNNY     54  30  40 NE5       30.34F
MOULTRIE*      SUNNY     50  30  46 N3        30.34F
VIDALIA*       SUNNY     50  30  46 CALM      30.33F
WAYCROSS*      SUNNY     53  31  44 CALM      30.33F
DOUGLAS*       SUNNY     52  27  37 CALM      30.34F
$$


USA.gov is the U.S. government's official web portal to all federal, state and local government web resources and services.